Pensacola, FL

12:48 AM CDT on April 28, 2017 (GMT -0500)
Pensacola Regional

Weather History for KPNS - February, 2014

Change the Weather History Date:

Thursday, February 20, 2014

  Actual Average Record
Temperature  
Mean Temperature 69 °F 56 °F  
Max Temperature 72 °F 65 °F 80 °F (1981)
Min Temperature 65 °F 47 °F 27 °F (1958)
Degree Days  
Heating Degree Days 0 10  
Month to date heating degree days 196 228  
Since 1 July heating degree days 1272 1239  
Cooling Degree Days 4 0  
Month to date cooling degree days 11 0  
Year to date cooling degree days 11 6  
Growing Degree Days 19 (Base 50)    
Moisture  
Dew Point 65 °F    
Average Humidity 90    
Maximum Humidity 100    
Minimum Humidity 79    
Precipitation  
Precipitation 0.00 in 0.18 in 3.80 in (1919)
Month to date precipitation 2.25 3.59  
Year to date precipitation 5.70 8.22  
Snow  
Snow 0.00 in 0.00 in - ()
Month to date snowfall T 0.0  
Since 1 July snowfall 1.0 0.0  
Snow Depth 0.00 in    
Sea Level Pressure  
Sea Level Pressure 30.01 in    
Wind  
Wind Speed 13 mph (SSE)    
Max Wind Speed 21 mph    
Max Gust Speed 26 mph    
Visibility 4 miles    
Events Fog    
T = Trace of Precipitation, MM = Missing Value Source: NWS Daily Summary

Daily Weather History Graph

Daily Weather History Graph

Search for Another Location

Airport or City:

Trip Planner

Search our weather history database for the weather conditions in past years. The results will help you decide how hot, cold, wet, or windy it might be!

Date:

Astronomy

Feb. 20, 2014 Rise Set
Actual Time 6:24 AM CST 5:40 PM CST
Civil Twilight 6:00 AM CST 6:05 PM CST
Nautical Twilight 5:31 AM CST 6:33 PM CST
Astronomical Twilight 5:04 AM CST 7:01 PM CST
Moon 11:08 PM CST (2/20) 9:31 AM CST (2/20)
Length of Visible Light 12h 05m
Length of Day
11h 16m
Waning Gibbous, 70% of the Moon is Illuminated
Feb 20
Waning Gibbous
Feb 22
Last Quarter
Mar 1
New
Mar 8
First Quarter
Mar 16
Full

Hourly Weather History & Observations

Time (CST) Temp. Dew Point Humidity Pressure Visibility Wind Dir Wind Speed Gust Speed Precip Events Conditions
12:07 AM 66.0 °F 64.0 °F 93% 30.03 in 0.5 mi SSE 9.2 mph - N/A Fog Fog
12:30 AM 66.0 °F 64.0 °F 93% 30.03 in 0.2 mi SSE 10.4 mph - N/A Fog Fog
12:36 AM 66.0 °F 64.0 °F 93% 30.03 in 0.5 mi South 10.4 mph - N/A Fog Fog
12:53 AM 66.0 °F 64.0 °F 93% 30.03 in 0.8 mi South 12.7 mph - N/A   Mist
1:05 AM 66.0 °F 64.0 °F 93% 30.02 in 1.2 mi South 11.5 mph - N/A   Overcast
1:20 AM 66.0 °F 64.0 °F 93% 30.02 in 2.5 mi SSE 13.8 mph - N/A   Overcast
1:42 AM 66.0 °F 64.0 °F 93% 30.02 in 4.0 mi South 13.8 mph - N/A   Overcast
1:53 AM 66.0 °F 64.0 °F 93% 30.02 in 6.0 mi South 10.4 mph - N/A   Overcast
2:53 AM 66.0 °F 64.0 °F 93% 30.02 in 8.0 mi South 12.7 mph - N/A   Overcast
3:53 AM 66.0 °F 64.0 °F 93% 30.01 in 8.0 mi SSE 10.4 mph - N/A   Overcast
4:27 AM 66.0 °F 64.0 °F 93% 30.00 in 7.0 mi SSE 9.2 mph - N/A   Overcast
4:53 AM 66.0 °F 64.0 °F 93% 30.01 in 6.0 mi SSE 10.4 mph - N/A   Overcast
5:53 AM 66.0 °F 64.0 °F 93% 30.02 in 4.0 mi SSE 8.1 mph - N/A   Overcast
6:53 AM 66.0 °F 64.0 °F 93% 30.03 in 4.0 mi SSE 8.1 mph - N/A   Overcast
7:53 AM 66.9 °F 64.0 °F 90% 30.05 in 2.0 mi SSE 10.4 mph - N/A   Overcast
8:00 AM 66.9 °F 64.0 °F 90% 30.04 in 3.0 mi SSE 10.4 mph - N/A   Overcast
8:24 AM 66.9 °F 64.0 °F 90% 30.04 in 2.0 mi SSE 11.5 mph - N/A   Overcast
8:53 AM 68.0 °F 64.0 °F 87% 30.06 in 2.0 mi SSE 12.7 mph - 0.00 in   Overcast
9:00 AM 68.0 °F 64.9 °F 90% 30.05 in 7.0 mi SSE 11.5 mph - N/A   Overcast
9:40 AM 69.1 °F 64.0 °F 84% 30.05 in 7.0 mi SSE 12.7 mph - N/A   Overcast
9:53 AM 69.1 °F 64.0 °F 84% 30.06 in 7.0 mi South 12.7 mph - N/A   Overcast
10:53 AM 70.0 °F 64.0 °F 81% 30.05 in 10.0 mi SSE 10.4 mph - N/A   Overcast
11:53 AM 71.1 °F 64.0 °F 78% 30.04 in 7.0 mi South 16.1 mph - N/A   Overcast
12:53 PM 72.0 °F 64.0 °F 76% 30.01 in 10.0 mi SSE 16.1 mph 24.2 mph N/A   Overcast
1:53 PM 72.0 °F 64.9 °F 78% 30.01 in 10.0 mi SSE 15.0 mph - N/A   Overcast
2:53 PM 70.0 °F 64.9 °F 84% 30.00 in 9.0 mi SSE 13.8 mph - N/A   Overcast
3:53 PM 69.1 °F 64.9 °F 87% 30.00 in 8.0 mi SSE 11.5 mph - N/A   Overcast
4:53 PM 68.0 °F 64.9 °F 90% 29.99 in 7.0 mi SSE 11.5 mph - N/A   Overcast
5:10 PM 68.0 °F 64.9 °F 90% 29.98 in 1.0 mi SSE 13.8 mph - N/A   Overcast
5:27 PM 68.0 °F 64.9 °F 90% 29.98 in 6.0 mi SSE 15.0 mph - N/A   Overcast
5:34 PM 66.9 °F 64.9 °F 93% 29.98 in 0.5 mi SSE 11.5 mph - N/A Fog Fog
5:53 PM 66.9 °F 66.0 °F 97% 29.98 in 0.5 mi SSE 13.8 mph - N/A Fog Fog
6:41 PM 66.9 °F 64.9 °F 93% 29.96 in 0.5 mi SSE 13.8 mph - N/A Fog Fog
6:53 PM 66.9 °F 64.9 °F 93% 29.97 in 0.5 mi SSE 13.8 mph - N/A Fog Fog
7:46 PM 66.9 °F 66.0 °F 97% 29.97 in 0.5 mi SSE 11.5 mph - N/A Fog Fog
7:53 PM 66.9 °F 64.9 °F 93% 29.98 in 1.0 mi SSE 13.8 mph - N/A   Mist
8:01 PM 66.9 °F 66.0 °F 97% 29.97 in 3.0 mi SSE 12.7 mph - N/A   Overcast
8:53 PM 66.9 °F 64.9 °F 93% 29.96 in 4.0 mi SSE 13.8 mph - N/A   Overcast
9:53 PM 66.9 °F 64.9 °F 93% 29.95 in 5.0 mi SSE 16.1 mph 23.0 mph N/A   Overcast
10:53 PM 68.0 °F 66.0 °F 93% 29.95 in 7.0 mi South 18.4 mph 24.2 mph N/A   Overcast
11:44 PM 69.1 °F 66.0 °F 90% 29.93 in 6.0 mi South 16.1 mph - N/A   Overcast
11:53 PM 69.1 °F 66.0 °F 90% 29.94 in 7.0 mi South 18.4 mph - N/A   Overcast